Terminal Aerodrome Forecast
Issued by NWS

Current Version | Previous Version | Graphics & Text | Print | Product List | Glossary On
Versions: 1 2 3 4 5 6 7 8 9 10 11 12 13 14 15 16 17 18 19 20 21
152
FTUS41 KPBZ 021122
TAFHLG
TAF
KHLG 021122Z 0212/0312 22007KT P6SM SCT008
     FM021700 29012KT P6SM SCT035
     FM022300 33005KT P6SM VCSH BKN050=

USA.gov is the U.S. government's official web portal to all federal, state and local government web resources and services.